KJ4CO Weather Reports


time (UTC)temp
F
wind
direction
speed
knots
gust
knots
rain 1hr
in
rain 24hr
in
rain mn
in
humidity
%
barometer
mb
20260906121534 75 245 0.0 0.0 0.00 0.00 0.00 95 1012.5
20260906120032 75 245 0.0 0.0 0.00 0.00 0.00 95 1012.4
20260906114541 75 245 0.0 0.0 0.00 0.00 0.00 95 1012.2
20260906113028 75 245 0.0 0.0 0.00 0.00 0.00 95 1012.0
20260906111529 75 245 0.0 0.0 0.00 0.00 0.00 95 1011.8
20260906110024 75 245 0.0 0.0 0.00 0.00 0.00 95 1011.5
20260906104522 75 245 0.0 0.0 0.00 0.00 0.00 95 1011.5
20260906103020 75 245 0.0 0.0 0.00 0.00 0.00 95 1011.3
20260906101521 75 245 0.0 0.0 0.00 0.00 0.00 95 1011.1
20260906100018 75 245 0.0 0.0 0.00 0.00 0.00 95 1011.0
20260906094515 76 245 0.0 0.0 0.00 0.00 0.00 95 1010.9
20260906093014 76 245 0.0 0.0 0.00 0.00 0.00 94 1010.8
20260906091517 76 245 0.0 0.0 0.00 0.00 0.00 95 1010.7
20260906090011 76 245 0.0 0.0 0.00 0.00 0.00 95 1010.7
20260906084510 76 245 0.0 0.0 0.00 0.00 0.00 94 1010.8
20260906083011 77 245 0.0 0.0 0.00 0.00 0.00 94 1010.9
20260906081507 77 245 0.0 0.0 0.00 0.00 0.00 94 1010.8
20260906080008 77 245 0.0 0.0 0.00 0.00 0.00 94 1010.8
20260906074505 77 245 0.0 0.0 0.00 0.00 0.00 94 1010.7
20260906073004 77 245 0.0 0.0 0.00 0.00 0.00 94 1010.7
20260906071503 78 245 0.0 0.0 0.00 0.00 0.00 94 1010.5
20260906070002 78 245 0.0 0.0 0.00 0.00 0.00 94 1010.5
20260906064603 78 245 0.0 0.0 0.00 0.00 0.00 94 1010.7
20260906063058 78 245 0.0 0.0 0.00 0.00 0.00 94 1010.8
20260906061556 79 245 0.0 0.0 0.00 0.00 0.00 94 1010.9
20260906060140 79 245 0.0 0.0 0.00 0.00 0.00 94 1010.9
20260906054554 79 245 0.0 0.0 0.00 0.00 0.00 94 1011.0
20260906053054 79 245 0.0 0.0 0.00 0.00 0.00 94 1011.1
20260906051551 79 245 0.0 0.0 0.00 0.00 0.00 94 1011.2
20260906050105 79 245 0.0 0.0 0.00 0.00 0.00 93 1011.2
20260906044549 79 245 0.0 0.0 0.00 0.00 0.00 93 1011.2
20260906043049 79 245 0.0 0.0 0.00 0.00 0.00 93 1011.1
20260906041548 79 245 0.0 0.0 0.00 0.00 0.00 93 1011.1
20260906040048 79 245 0.0 0.0 0.00 0.00 0.00 93 1011.1
20260906034556 79 245 0.0 0.0 0.00 0.00 0.00 93 1011.0
20260906033045 80 245 0.0 0.0 0.00 0.00 0.00 92 1010.9
20260906031609 80 245 0.0 0.0 0.00 0.00 0.00 93 1010.9
20260906030047 80 245 0.0 0.0 0.00 0.00 0.00 92 1010.7
20260906024554 81 245 0.0 0.0 0.00 0.00 0.00 92 1010.6
20260906023104 81 245 0.0 0.0 0.00 0.00 0.00 91 1010.5
20260906021544 82 245 0.0 0.0 0.00 0.00 0.00 91 1010.3
20260906020050 82 245 0.0 0.0 0.00 0.00 0.00 90 1010.1
20260906014543 82 245 0.0 0.0 0.00 0.00 0.00 90 1010.0
20260906013043 83 245 0.0 0.0 0.00 0.00 0.00 89 1010.0
20260906011542 83 245 0.0 0.0 0.00 0.00 0.00 89 1009.9
20260906010042 84 245 0.0 0.0 0.00 0.00 0.00 88 1009.9
20260906004548 85 245 0.0 0.0 0.00 0.00 0.00 86 1009.8
20260906003048 86 245 0.0 0.0 0.00 0.00 0.00 86 1009.7
20260906001544 86 245 0.0 0.0 0.00 0.00 0.00 84 1009.6
20260906000040 87 245 0.0 0.0 0.00 0.00 0.00 84 1009.9
20260905234542 88 245 0.0 0.0 0.00 0.00 0.00 83 1009.9
20260905233046 88 245 0.0 0.0 0.00 0.00 0.00 79 1009.8
20260905231539 89 245 0.0 0.0 0.00 0.00 0.00 77 1009.8
20260905230038 90 245 0.0 0.0 0.00 0.00 0.00 75 1009.8
20260905224537 91 245 0.0 0.0 0.00 0.00 0.00 75 1009.8
20260905223036 93 245 0.0 0.0 0.00 0.00 0.00 72 1009.7
20260905221541 94 245 0.0 0.0 0.00 0.00 0.00 70 1009.8
20260905220033 94 245 0.0 0.0 0.00 0.00 0.00 69 1009.9
20260905214534 94 245 0.0 0.0 0.00 0.00 0.00 76 1009.9
20260905213028 94 245 0.0 0.0 0.00 0.00 0.00 73 1010.0
20260905211525 95 245 0.0 0.0 0.00 0.00 0.00 66 1010.1
20260905210023 96 245 0.0 0.0 0.00 0.00 0.00 65 1010.3
20260905204521 96 245 0.0 0.0 0.00 0.00 0.00 60 1010.3
20260905203018 96 245 0.0 0.0 0.00 0.00 0.00 57 1010.4
20260905201516 98 245 0.0 0.0 0.00 0.00 0.00 61 1010.7
20260905200013 98 245 0.0 0.0 0.00 0.00 0.00 56 1010.9
20260905194510 98 245 0.0 0.0 0.00 0.00 0.00 57 1011.1
20260905193007 98 245 0.0 0.0 0.00 0.00 0.00 60 1011.4
20260905191505 98 245 0.0 0.0 0.00 0.00 0.00 54 1011.6
20260905184600 97 245 0.0 0.0 0.00 0.00 0.00 53 1011.8
20260905183055 96 246 0.0 0.0 0.00 0.00 0.00 54 1012.0
20260905181552 95 246 0.0 0.0 0.00 0.00 0.00 58 1012.2
20260905180110 95 246 0.0 0.0 0.00 0.00 0.00 58 1012.5
20260905174547 95 246 0.0 0.0 0.00 0.00 0.00 57 1012.6
20260905173109 95 246 0.0 0.0 0.00 0.00 0.00 58 1012.7
20260905171552 94 246 0.0 0.0 0.00 0.00 0.00 59 1012.9
20260905170044 94 149 0.0 0.0 0.00 0.00 0.00 60 1012.9
20260905164542 93 149 0.0 0.0 0.00 0.00 0.00 64 1013.0
20260905163034 92 149 0.0 0.0 0.00 0.00 0.00 69 1013.2
20260905161531 91 149 0.0 0.0 0.00 0.00 0.00 72 1013.3
20260905160046 90 149 0.0 0.0 0.00 0.00 0.00 75 1013.4
20260905154526 89 149 0.0 0.0 0.00 0.00 0.00 78 1013.5
20260905153025 88 149 0.0 0.0 0.00 0.00 0.00 80 1013.5
20260905151519 87 149 0.0 0.0 0.00 0.00 0.00 83 1013.6
20260905150015 85 149 0.0 0.0 0.00 0.00 0.00 88 1013.5
20260905144514 83 149 0.0 0.0 0.00 0.00 0.00 89 1013.6
20260905143007 82 149 0.0 0.0 0.00 0.00 0.00 94 1013.7
20260905141510 81 147 0.0 0.0 0.00 0.00 0.00 96 1013.6
20260905140001 80 147 0.0 0.0 0.00 0.00 0.00 97 1013.7
20260905134603 79 147 0.0 0.0 0.00 0.00 0.00 97 1013.6
20260905133055 78 147 0.0 0.0 0.00 0.00 0.00 97 1013.7
20260905131554 76 147 0.0 0.0 0.00 0.00 0.00 97 1013.6
20260905130052 75 147 0.0 0.0 0.00 0.00 0.00 96 1013.4
20260905124554 75 147 0.0 0.0 0.00 0.00 0.00 96 1013.3
20260905123049 74 147 0.0 0.0 0.00 0.00 0.00 96 1013.2